When you browse on this site, cookies collect data to enhance your experience and personalize the content and advertising you see.
Visit our Privacy Policy to learn more. By continuing to use the site, you agree to this use of cookies and data.
  • In Sweden
  • List of Countries
  • For 7 days
  • Water Temperature
  • Satellite Maps
  • Weather Map
  • Weather Widgets
  • user-avatar
    Login

    Hourly Weather Batina

    Today, 21 July, Sunday

    Time Temperature Precipitation Wind Pressure Humidity
    00:00 +27°C° 0 mm 1 mps 674 mmHg 40%
    01:00 +26°C° 0 mm 2 mps 673 mmHg 41%
    02:00 +26°C° 0 mm 2 mps 673 mmHg 42%
    03:00 +25°C° 0 mm 2 mps 673 mmHg 43%
    04:00 +26°C° 0 mm 2 mps 673 mmHg 40%
    05:00 +27°C° 0 mm 2 mps 674 mmHg 37%
    06:00 +28°C° 0 mm 2 mps 674 mmHg 34%
    07:00 +30°C° 0 mm 2 mps 675 mmHg 31%
    08:00 +31°C° 0 mm 3 mps 675 mmHg 28%
    09:00 +34°C° 0 mm 3 mps 676 mmHg 24%
    10:00 +35°C° 0 mm 3 mps 676 mmHg 23%
    11:00 +36°C° 0 mm 4 mps 676 mmHg 21%
    12:00 +37°C° 0 mm 4 mps 676 mmHg 19%
    13:00 +37°C° 0 mm 5 mps 676 mmHg 19%
    14:00 +37°C° 0 mm 5 mps 675 mmHg 19%
    15:00 +37°C° 0 mm 5 mps 675 mmHg 19%
    16:00 +34°C° 1.7 mm 5 mps 674 mmHg 27%
    17:00 +29°C° 1.7 mm 5 mps 674 mmHg 35%
    18:00 +26°C° 1.7 mm 5 mps 673 mmHg 42%
    19:00 +26°C° 0 mm 3 mps 674 mmHg 42%
    20:00 +26°C° 0 mm 2 mps 674 mmHg 42%
    21:00 +27°C° 0 mm 1 mps 674 mmHg 42%
    22:00 +26°C° 0 mm 1 mps 675 mmHg 43%
    23:00 +25°C° 0 mm 2 mps 675 mmHg 44%

    Tomorrow, 22 July, Monday

    Time Temperature Precipitation Wind Pressure Humidity
    00:00 +25°C° 0 mm 2 mps 675 mmHg 45%
    01:00 +24°C° 0 mm 2 mps 674 mmHg 48%
    02:00 +23°C° 0 mm 1 mps 674 mmHg 52%
    03:00 +21°C° 0 mm 0 mps 674 mmHg 56%
    04:00 +22°C° 0 mm 0 mps 674 mmHg 53%
    05:00 +24°C° 0 mm 1 mps 674 mmHg 50%
    06:00 +25°C° 0 mm 1 mps 675 mmHg 47%
    07:00 +27°C° 0 mm 1 mps 675 mmHg 41%
    08:00 +28°C° 0 mm 1 mps 676 mmHg 35%
    09:00 +29°C° 0 mm 2 mps 676 mmHg 29%
    10:00 +30°C° 0 mm 2 mps 676 mmHg 26%
    11:00 +31°C° 0 mm 2 mps 676 mmHg 24%
    12:00 +33°C° 0 mm 3 mps 676 mmHg 21%
    13:00 +34°C° 0 mm 3 mps 676 mmHg 20%
    14:00 +34°C° 0 mm 3 mps 676 mmHg 19%
    15:00 +35°C° 0 mm 3 mps 676 mmHg 18%
    16:00 +34°C° 0 mm 4 mps 675 mmHg 19%
    17:00 +34°C° 0 mm 5 mps 675 mmHg 20%
    18:00 +33°C° 0 mm 5 mps 675 mmHg 21%
    19:00 +30°C° 0 mm 4 mps 675 mmHg 26%
    20:00 +29°C° 0 mm 2 mps 675 mmHg 31%
    21:00 +25°C° 0 mm 0 mps 675 mmHg 36%
    22:00 +24°C° 0 mm 0 mps 675 mmHg 38%
    23:00 +24°C° 0 mm 0 mps 674 mmHg 40%

    Day after tomorrow, 23 July, Tuesday

    Time Temperature Precipitation Wind Pressure Humidity
    00:00 +23°C° 0 mm 0 mps 674 mmHg 41%
    01:00 +22°C° 0 mm 0 mps 674 mmHg 43%
    02:00 +22°C° 0 mm 0 mps 673 mmHg 45%
    03:00 +21°C° 0 mm 0 mps 673 mmHg 47%
    04:00 +24°C° 0 mm 1 mps 673 mmHg 46%
    05:00 +25°C° 0 mm 1 mps 674 mmHg 44%
    06:00 +25°C° 0 mm 1 mps 674 mmHg 42%
    07:00 +27°C° 0 mm 2 mps 674 mmHg 39%
    08:00 +28°C° 0 mm 2 mps 675 mmHg 36%
    09:00 +29°C° 0 mm 3 mps 675 mmHg 32%
    10:00 +30°C° 0 mm 3 mps 675 mmHg 29%
    11:00 +32°C° 0 mm 4 mps 675 mmHg 26%
    12:00 +33°C° 0 mm 4 mps 675 mmHg 23%
    13:00 +34°C° 0 mm 4 mps 674 mmHg 22%
    14:00 +34°C° 0 mm 3 mps 674 mmHg 21%
    15:00 +34°C° 0 mm 3 mps 674 mmHg 20%
    16:00 +34°C° 0 mm 3 mps 674 mmHg 21%
    17:00 +33°C° 0 mm 3 mps 673 mmHg 21%
    18:00 +33°C° 0 mm 4 mps 673 mmHg 22%
    19:00 +30°C° 0 mm 3 mps 673 mmHg 26%
    20:00 +29°C° 0 mm 2 mps 673 mmHg 30%
    21:00 +27°C° 0 mm 1 mps 673 mmHg 34%
    22:00 +27°C° 0 mm 1 mps 673 mmHg 35%
    23:00 +26°C° 0 mm 2 mps 673 mmHg 36%

    24 July, Wednesday

    Time Temperature Precipitation Wind Pressure Humidity
    00:00 +26°C° 0 mm 2 mps 672 mmHg 37%
    01:00 +25°C° 0 mm 2 mps 672 mmHg 37%
    02:00 +25°C° 0 mm 2 mps 672 mmHg 37%
    03:00 +24°C° 0 mm 2 mps 672 mmHg 37%
    04:00 +25°C° 0 mm 2 mps 672 mmHg 34%
    05:00 +25°C° 0 mm 2 mps 672 mmHg 31%
    06:00 +26°C° 0 mm 2 mps 673 mmHg 28%
    07:00 +27°C° 0 mm 3 mps 673 mmHg 26%
    08:00 +29°C° 0 mm 3 mps 674 mmHg 25%
    09:00 +32°C° 0 mm 4 mps 675 mmHg 23%
    10:00 +32°C° 0 mm 4 mps 675 mmHg 22%
    11:00 +33°C° 0 mm 4 mps 674 mmHg 21%
    12:00 +34°C° 0 mm 4 mps 674 mmHg 20%
    13:00 +34°C° 0 mm 4 mps 674 mmHg 20%
    14:00 +35°C° 0 mm 5 mps 673 mmHg 19%
    15:00 +35°C° 0 mm 5 mps 673 mmHg 19%
    16:00 +34°C° 0 mm 5 mps 673 mmHg 20%
    17:00 +34°C° 0 mm 4 mps 673 mmHg 21%
    18:00 +33°C° 0 mm 4 mps 672 mmHg 22%
    19:00 +31°C° 0 mm 3 mps 672 mmHg 25%
    20:00 +29°C° 0 mm 2 mps 672 mmHg 29%
    21:00 +28°C° 0 mm 1 mps 672 mmHg 32%
    22:00 +27°C° 0 mm 1 mps 672 mmHg 33%
    23:00 +27°C° 0 mm 1 mps 672 mmHg 33%

    25 July, Thursday

    Time Temperature Precipitation Wind Pressure Humidity
    00:00 +26°C° 0 mm 1 mps 671 mmHg 34%
    01:00 +26°C° 0 mm 1 mps 671 mmHg 34%
    02:00 +25°C° 0 mm 1 mps 671 mmHg 34%
    03:00 +25°C° 0 mm 1 mps 671 mmHg 35%
    04:00 +26°C° 0 mm 2 mps 671 mmHg 33%
    05:00 +26°C° 0 mm 2 mps 672 mmHg 31%
    06:00 +27°C° 0 mm 2 mps 672 mmHg 30%
    07:00 +29°C° 0 mm 3 mps 673 mmHg 27%
    08:00 +30°C° 0 mm 4 mps 673 mmHg 24%
    09:00 +33°C° 0 mm 4 mps 674 mmHg 21%
    10:00 +34°C° 0 mm 5 mps 674 mmHg 20%
    11:00 +35°C° 0 mm 5 mps 674 mmHg 19%
    12:00 +36°C° 0 mm 5 mps 673 mmHg 18%
    13:00 +36°C° 0 mm 6 mps 673 mmHg 17%
    14:00 +36°C° 0 mm 6 mps 673 mmHg 17%
    15:00 +36°C° 0 mm 6 mps 672 mmHg 16%
    16:00 +35°C° 0 mm 5 mps 672 mmHg 17%
    17:00 +35°C° 0 mm 5 mps 672 mmHg 18%
    18:00 +34°C° 0 mm 4 mps 672 mmHg 19%
    19:00 +33°C° 0 mm 3 mps 672 mmHg 22%
    20:00 +30°C° 0 mm 2 mps 672 mmHg 25%
    21:00 +28°C° 0 mm 1 mps 672 mmHg 28%
    22:00 +28°C° 0 mm 1 mps 671 mmHg 29%
    23:00 +27°C° 0 mm 1 mps 671 mmHg 29%

    26 July, Friday

    Time Temperature Precipitation Wind Pressure Humidity
    00:00 +27°C° 0 mm 1 mps 671 mmHg 29%
    01:00 +27°C° 0 mm 1 mps 671 mmHg 30%
    02:00 +26°C° 0 mm 1 mps 671 mmHg 30%
    03:00 +26°C° 0 mm 2 mps 670 mmHg 31%
    04:00 +26°C° 0 mm 2 mps 671 mmHg 30%
    05:00 +27°C° 0 mm 2 mps 671 mmHg 29%
    06:00 +28°C° 0 mm 2 mps 671 mmHg 28%
    07:00 +30°C° 0 mm 4 mps 672 mmHg 25%
    08:00 +33°C° 0 mm 6 mps 672 mmHg 21%
    09:00 +35°C° 0 mm 8 mps 673 mmHg 18%
    10:00 +35°C° 0 mm 7 mps 673 mmHg 17%
    11:00 +36°C° 0 mm 7 mps 673 mmHg 16%
    12:00 +36°C° 0 mm 6 mps 673 mmHg 16%
    13:00 +36°C° 0 mm 6 mps 672 mmHg 15%
    14:00 +36°C° 0 mm 6 mps 672 mmHg 14%
    15:00 +36°C° 0 mm 5 mps 672 mmHg 13%
    16:00 +35°C° 0 mm 5 mps 672 mmHg 17%
    17:00 +34°C° 0 mm 5 mps 672 mmHg 21%
    18:00 +33°C° 0 mm 5 mps 671 mmHg 24%
    19:00 +30°C° 0 mm 5 mps 672 mmHg 29%
    20:00 +28°C° 0 mm 4 mps 672 mmHg 34%
    21:00 +26°C° 0 mm 4 mps 672 mmHg 39%
    22:00 +26°C° 0 mm 3 mps 671 mmHg 41%
    23:00 +25°C° 0 mm 3 mps 671 mmHg 42%
    Show more